Year,Month,Day,Hour,Minute,Value (Times are PST for windgust in km/hr)
2018,12,18,00,01,1.60
2018,12,18,00,02,3.20
2018,12,18,00,03,1.60
2018,12,18,00,04,1.60
2018,12,18,00,05,1.60
2018,12,18,00,06,4.80
2018,12,18,00,07,4.80
2018,12,18,00,08,4.80
2018,12,18,00,09,1.60
2018,12,18,00,11,3.20
2018,12,18,00,12,3.20
2018,12,18,00,13,1.60
2018,12,18,00,14,3.20
2018,12,18,00,15,1.60
2018,12,18,00,16,3.20
2018,12,18,00,17,1.60
2018,12,18,00,18,3.20
2018,12,18,00,19,4.80
2018,12,18,00,20,3.20
2018,12,18,00,21,1.60
2018,12,18,00,24,3.20
2018,12,18,00,25,6.40
2018,12,18,00,26,4.80
2018,12,18,00,27,4.80
2018,12,18,00,28,1.60
2018,12,18,00,29,3.20
2018,12,18,00,30,1.60
2018,12,18,00,32,1.60
2018,12,18,00,35,1.60
2018,12,18,00,42,3.20
2018,12,18,00,43,1.60
2018,12,18,00,48,1.60
2018,12,18,00,50,1.60
2018,12,18,00,51,3.20
2018,12,18,00,53,1.60
2018,12,18,00,55,3.20
2018,12,18,00,56,3.20
2018,12,18,00,57,1.60
2018,12,18,00,58,1.60
2018,12,18,00,59,3.20
2018,12,18,01,00,3.20
2018,12,18,01,01,1.60
2018,12,18,01,09,1.60
2018,12,18,01,10,1.60
2018,12,18,01,18,3.20
2018,12,18,01,19,3.20
2018,12,18,01,20,3.20
2018,12,18,01,21,1.60
2018,12,18,08,37,12.90
2018,12,18,08,38,11.30
2018,12,18,08,39,12.90
2018,12,18,08,40,14.50
2018,12,18,08,41,11.30
2018,12,18,08,42,9.60
2018,12,18,08,43,11.30
2018,12,18,08,44,11.30
2018,12,18,08,45,12.90
2018,12,18,08,46,14.50
2018,12,18,08,47,17.70
2018,12,18,08,48,14.50
2018,12,18,08,49,14.50
2018,12,18,08,50,17.70
2018,12,18,08,51,11.30
2018,12,18,08,52,11.30
2018,12,18,08,53,19.30
2018,12,18,08,54,19.30
2018,12,18,08,55,16.10
2018,12,18,08,56,19.30
2018,12,18,08,57,20.90
2018,12,18,08,58,19.30
2018,12,18,08,59,16.10
2018,12,18,09,00,22.50
2018,12,18,09,01,20.90
2018,12,18,09,02,19.30
2018,12,18,09,03,19.30
2018,12,18,09,04,19.30
2018,12,18,09,05,25.70
2018,12,18,09,06,24.20
2018,12,18,09,07,17.70
2018,12,18,09,08,16.10
2018,12,18,09,09,8.10
2018,12,18,09,10,19.30
2018,12,18,09,11,19.30
2018,12,18,09,12,16.10
2018,12,18,09,13,22.50
2018,12,18,09,14,22.50
2018,12,18,09,15,22.50
2018,12,18,09,16,17.70
2018,12,18,09,17,17.70
2018,12,18,09,18,20.90
2018,12,18,09,19,20.90
2018,12,18,09,20,16.10
2018,12,18,09,21,20.90
2018,12,18,09,22,16.10
2018,12,18,09,23,16.10
2018,12,18,09,24,22.50
2018,12,18,09,25,17.70
2018,12,18,09,26,11.30
2018,12,18,09,27,17.70
2018,12,18,09,28,14.50
2018,12,18,09,29,14.50
2018,12,18,09,30,16.10
2018,12,18,09,31,11.30
2018,12,18,09,32,17.70
2018,12,18,09,33,16.10
2018,12,18,09,34,14.50
2018,12,18,09,35,17.70
2018,12,18,09,36,22.50
2018,12,18,09,37,14.50
2018,12,18,09,38,17.70
2018,12,18,09,39,17.70
2018,12,18,09,40,12.90
2018,12,18,09,41,19.30
2018,12,18,09,42,22.50
2018,12,18,09,43,22.50
2018,12,18,09,44,29.00
2018,12,18,09,45,25.70
2018,12,18,09,46,19.30
2018,12,18,09,47,24.20
2018,12,18,09,48,24.20
2018,12,18,09,49,22.50
2018,12,18,09,50,12.90
2018,12,18,09,51,12.90
2018,12,18,09,52,14.50
2018,12,18,09,53,22.50
2018,12,18,09,54,19.30
2018,12,18,09,55,19.30
2018,12,18,09,56,16.10
2018,12,18,09,57,22.50
2018,12,18,09,58,20.90
2018,12,18,09,59,16.10
2018,12,18,10,00,16.10
2018,12,18,10,01,19.30
2018,12,18,10,02,20.90
2018,12,18,10,03,20.90
2018,12,18,10,04,17.70
2018,12,18,10,05,25.70
2018,12,18,10,06,14.50
2018,12,18,10,07,22.50
2018,12,18,10,08,19.30
2018,12,18,10,09,22.50
2018,12,18,10,10,24.20
2018,12,18,10,11,12.90
2018,12,18,10,12,19.30
2018,12,18,10,13,14.50
2018,12,18,10,14,17.70
2018,12,18,10,15,16.10
2018,12,18,10,16,11.30
2018,12,18,10,17,17.70
2018,12,18,10,18,12.90
2018,12,18,10,19,12.90
2018,12,18,10,20,12.90
2018,12,18,10,21,9.60
2018,12,18,10,22,11.30
2018,12,18,10,23,12.90
2018,12,18,10,24,8.10
2018,12,18,10,25,9.60
2018,12,18,10,26,12.90
2018,12,18,10,27,14.50
2018,12,18,10,28,8.10
2018,12,18,10,29,8.10
2018,12,18,10,30,9.60
2018,12,18,10,31,12.90
2018,12,18,10,32,9.60
2018,12,18,10,33,6.40
2018,12,18,10,34,8.10
2018,12,18,10,35,12.90
2018,12,18,10,36,6.40
2018,12,18,10,37,11.30
2018,12,18,10,38,14.50
2018,12,18,10,39,11.30
2018,12,18,10,40,9.60
2018,12,18,10,41,12.90
2018,12,18,10,42,9.60
2018,12,18,10,43,8.10
2018,12,18,10,44,11.30
2018,12,18,10,45,11.30
2018,12,18,10,46,14.50
2018,12,18,10,47,14.50
2018,12,18,10,48,12.90
2018,12,18,10,49,9.60
2018,12,18,10,50,9.60
2018,12,18,10,51,12.90
2018,12,18,10,52,9.60
2018,12,18,10,53,12.90
2018,12,18,10,54,11.30
2018,12,18,10,55,11.30
2018,12,18,10,56,8.10
2018,12,18,10,57,11.30
2018,12,18,10,58,9.60
2018,12,18,10,59,8.10
2018,12,18,11,00,8.10
2018,12,18,11,01,4.80
2018,12,18,11,02,8.10
2018,12,18,11,03,11.30
2018,12,18,11,04,8.10
2018,12,18,11,05,8.10
2018,12,18,11,06,11.30
2018,12,18,11,07,12.90
2018,12,18,11,08,11.30
2018,12,18,11,09,9.60
2018,12,18,11,10,8.10
2018,12,18,11,11,9.60
2018,12,18,11,12,14.50
2018,12,18,11,13,11.30
2018,12,18,11,14,12.90
2018,12,18,11,15,16.10
2018,12,18,11,16,19.30
2018,12,18,11,17,17.70
2018,12,18,11,18,17.70
2018,12,18,11,19,14.50
2018,12,18,11,20,17.70
2018,12,18,11,21,19.30
2018,12,18,11,22,16.10
2018,12,18,11,23,9.60
2018,12,18,11,24,8.10
2018,12,18,11,25,16.10
2018,12,18,11,26,24.20
2018,12,18,11,27,17.70
2018,12,18,11,28,14.50
2018,12,18,11,29,17.70
2018,12,18,11,30,16.10
2018,12,18,11,31,12.90
2018,12,18,11,32,12.90
2018,12,18,11,33,11.30
2018,12,18,11,34,17.70
2018,12,18,11,35,9.60
2018,12,18,11,36,12.90
2018,12,18,11,37,14.50
2018,12,18,11,38,12.90
2018,12,18,11,39,16.10
2018,12,18,11,40,11.30
2018,12,18,11,41,12.90
2018,12,18,11,42,16.10
2018,12,18,11,43,14.50
2018,12,18,11,44,14.50
2018,12,18,11,45,16.10
2018,12,18,11,46,12.90
2018,12,18,11,47,19.30
2018,12,18,11,48,19.30
2018,12,18,11,49,19.30
2018,12,18,11,50,16.10
2018,12,18,11,51,17.70
2018,12,18,11,52,19.30
2018,12,18,11,53,24.20
2018,12,18,11,54,14.50
2018,12,18,11,55,17.70
2018,12,18,11,56,19.30
2018,12,18,11,57,17.70
2018,12,18,11,58,20.90
2018,12,18,11,59,24.20
2018,12,18,12,00,19.30
2018,12,18,12,01,12.90
2018,12,18,12,02,17.70
2018,12,18,12,03,14.50
2018,12,18,12,04,16.10
2018,12,18,12,05,9.60
2018,12,18,12,06,9.60
2018,12,18,12,07,11.30
2018,12,18,12,08,12.90
2018,12,18,12,09,16.10
2018,12,18,12,10,11.30
2018,12,18,12,11,14.50
2018,12,18,12,12,12.90
2018,12,18,12,13,19.30
2018,12,18,12,14,16.10
2018,12,18,12,15,17.70
2018,12,18,12,16,12.90
2018,12,18,12,17,11.30
2018,12,18,12,18,16.10
2018,12,18,12,19,14.50
2018,12,18,12,20,9.60
2018,12,18,12,21,14.50
2018,12,18,12,22,16.10
2018,12,18,12,23,17.70
2018,12,18,12,24,17.70
2018,12,18,12,25,17.70
2018,12,18,12,26,16.10
2018,12,18,12,27,14.50
2018,12,18,12,28,14.50
2018,12,18,12,29,14.50
2018,12,18,12,30,16.10
2018,12,18,12,31,17.70
2018,12,18,12,32,14.50
2018,12,18,12,33,14.50
2018,12,18,12,34,17.70
2018,12,18,12,35,16.10
2018,12,18,12,36,14.50
2018,12,18,12,37,12.90
2018,12,18,12,38,20.90
2018,12,18,12,39,24.20
2018,12,18,12,40,22.50
2018,12,18,12,41,20.90
2018,12,18,12,42,12.90
2018,12,18,12,43,12.90
2018,12,18,12,44,19.30
2018,12,18,12,45,20.90
2018,12,18,12,46,12.90
2018,12,18,12,47,11.30
2018,12,18,12,48,20.90
2018,12,18,12,49,20.90
2018,12,18,12,50,16.10
2018,12,18,12,51,22.50
2018,12,18,12,52,16.10
2018,12,18,12,53,22.50
2018,12,18,12,54,16.10
2018,12,18,12,55,17.70
2018,12,18,12,56,22.50
2018,12,18,12,57,19.30
2018,12,18,12,58,14.50
2018,12,18,12,59,17.70
2018,12,18,13,00,19.30
2018,12,18,13,01,19.30
2018,12,18,13,02,12.90
2018,12,18,13,03,16.10
2018,12,18,13,04,14.50
2018,12,18,13,05,16.10
2018,12,18,13,06,24.20
2018,12,18,13,07,24.20
2018,12,18,13,08,19.30
2018,12,18,13,09,17.70
2018,12,18,13,10,19.30
2018,12,18,13,11,12.90
2018,12,18,13,12,12.90
2018,12,18,13,13,20.90
2018,12,18,13,14,19.30
2018,12,18,13,15,12.90
2018,12,18,13,16,16.10
2018,12,18,13,17,12.90
2018,12,18,13,18,16.10
2018,12,18,13,19,11.30
2018,12,18,13,20,19.30
2018,12,18,13,21,12.90
2018,12,18,13,22,14.50
2018,12,18,13,23,14.50
2018,12,18,13,24,16.10
2018,12,18,13,25,11.30
2018,12,18,13,26,17.70
2018,12,18,13,27,19.30
2018,12,18,13,28,19.30
2018,12,18,13,29,16.10
2018,12,18,13,30,14.50
2018,12,18,13,31,17.70
2018,12,18,13,32,20.90
2018,12,18,13,33,16.10
2018,12,18,13,34,16.10
2018,12,18,13,35,17.70
2018,12,18,13,36,20.90
2018,12,18,13,37,17.70
2018,12,18,13,38,14.50
2018,12,18,13,39,12.90
2018,12,18,13,40,20.90
2018,12,18,13,41,14.50
2018,12,18,13,42,14.50
2018,12,18,13,43,19.30
2018,12,18,13,44,17.70
2018,12,18,13,45,8.10
2018,12,18,13,46,14.50
2018,12,18,13,47,11.30
2018,12,18,13,48,16.10
2018,12,18,13,49,19.30
2018,12,18,13,50,22.50
2018,12,18,13,51,25.70
2018,12,18,13,52,22.50
2018,12,18,13,53,19.30
2018,12,18,13,54,25.70
2018,12,18,13,55,29.00
2018,12,18,13,56,24.20
2018,12,18,13,57,29.00
2018,12,18,13,58,27.40
2018,12,18,13,59,22.50
2018,12,18,14,00,19.30
2018,12,18,14,01,20.90
2018,12,18,14,02,19.30
2018,12,18,14,03,14.50
2018,12,18,14,04,19.30
2018,12,18,14,05,14.50
2018,12,18,14,06,14.50
2018,12,18,14,07,19.30
2018,12,18,14,08,17.70
2018,12,18,14,09,16.10
2018,12,18,14,10,22.50
2018,12,18,14,11,9.60
2018,12,18,14,12,11.30
2018,12,18,14,13,12.90
2018,12,18,14,14,14.50
2018,12,18,14,15,11.30
2018,12,18,14,16,14.50
2018,12,18,14,17,14.50
2018,12,18,14,18,12.90
2018,12,18,14,19,9.60
2018,12,18,14,20,12.90
2018,12,18,14,21,11.30
2018,12,18,14,22,11.30
2018,12,18,14,23,14.50
2018,12,18,14,24,12.90
2018,12,18,14,25,6.40
2018,12,18,14,26,12.90
2018,12,18,14,27,14.50
2018,12,18,14,28,16.10
2018,12,18,14,29,19.30
2018,12,18,14,30,17.70
2018,12,18,14,31,17.70
2018,12,18,14,32,17.70
2018,12,18,14,33,17.70
2018,12,18,14,34,25.70
2018,12,18,14,35,22.50
2018,12,18,14,36,19.30
2018,12,18,14,37,19.30
2018,12,18,14,38,19.30
2018,12,18,14,39,22.50
2018,12,18,14,40,22.50
2018,12,18,14,41,20.90
2018,12,18,14,42,17.70
2018,12,18,14,43,17.70
2018,12,18,14,44,19.30
2018,12,18,14,45,19.30
2018,12,18,14,46,16.10
2018,12,18,14,47,16.10
2018,12,18,14,48,14.50
2018,12,18,14,49,12.90
2018,12,18,14,50,11.30
2018,12,18,14,51,17.70
2018,12,18,14,52,12.90
2018,12,18,14,53,11.30
2018,12,18,14,54,12.90
2018,12,18,14,55,16.10
2018,12,18,14,56,12.90
2018,12,18,14,57,9.60
2018,12,18,14,58,14.50
2018,12,18,14,59,12.90
2018,12,18,15,00,14.50
2018,12,18,15,01,14.50
2018,12,18,15,02,14.50
2018,12,18,15,03,17.70
2018,12,18,15,04,14.50
2018,12,18,15,05,22.50
2018,12,18,15,06,19.30
2018,12,18,15,07,22.50
2018,12,18,15,08,19.30
2018,12,18,15,09,17.70
2018,12,18,15,10,12.90
2018,12,18,15,11,16.10
2018,12,18,15,12,14.50
2018,12,18,15,13,14.50
2018,12,18,15,14,11.30
2018,12,18,15,15,11.30
2018,12,18,15,16,14.50
2018,12,18,15,17,14.50
2018,12,18,15,18,12.90
2018,12,18,15,19,11.30
2018,12,18,15,20,14.50
2018,12,18,15,21,16.10
2018,12,18,15,22,9.60
2018,12,18,15,23,12.90
2018,12,18,15,24,11.30
2018,12,18,15,25,11.30
2018,12,18,15,26,9.60
2018,12,18,15,27,16.10
2018,12,18,15,28,16.10
2018,12,18,15,29,14.50
2018,12,18,15,30,12.90
2018,12,18,15,31,11.30
2018,12,18,15,32,12.90
2018,12,18,15,33,12.90
2018,12,18,15,34,11.30
2018,12,18,15,35,11.30
2018,12,18,15,36,14.50
2018,12,18,15,37,12.90
2018,12,18,15,38,16.10
2018,12,18,15,39,12.90
2018,12,18,15,40,16.10
2018,12,18,15,41,14.50
2018,12,18,15,42,16.10
2018,12,18,15,43,11.30
2018,12,18,15,44,11.30
2018,12,18,15,45,11.30
2018,12,18,15,46,11.30
2018,12,18,15,47,12.90
2018,12,18,15,48,12.90
2018,12,18,15,49,11.30
2018,12,18,15,50,11.30
2018,12,18,15,51,12.90
2018,12,18,15,52,14.50
2018,12,18,15,53,9.60
2018,12,18,15,54,11.30
2018,12,18,15,55,11.30
2018,12,18,15,56,16.10
2018,12,18,15,57,11.30
2018,12,18,15,58,12.90
2018,12,18,15,59,9.60
2018,12,18,16,00,9.60
2018,12,18,16,01,9.60
2018,12,18,16,02,12.90
2018,12,18,16,03,11.30
2018,12,18,16,04,12.90
2018,12,18,16,05,19.30
2018,12,18,16,06,20.90
2018,12,18,16,07,19.30
2018,12,18,16,08,20.90
2018,12,18,16,09,20.90
2018,12,18,16,10,22.50
2018,12,18,16,11,24.20
2018,12,18,16,12,24.20
2018,12,18,16,13,19.30
2018,12,18,16,14,17.70
2018,12,18,16,15,20.90
2018,12,18,16,16,14.50
2018,12,18,16,17,16.10
2018,12,18,16,18,19.30
2018,12,18,16,19,25.70
2018,12,18,16,20,24.20
2018,12,18,16,21,27.40
2018,12,18,16,22,27.40
2018,12,18,16,23,24.20
2018,12,18,16,24,29.00
2018,12,18,16,25,27.40
2018,12,18,16,26,29.00
2018,12,18,16,27,29.00
2018,12,18,16,28,25.70
2018,12,18,16,29,19.30
2018,12,18,16,30,22.50
2018,12,18,16,31,30.60
2018,12,18,16,32,30.60
2018,12,18,16,33,33.80
2018,12,18,16,34,32.20
2018,12,18,16,35,29.00
2018,12,18,16,36,24.20
2018,12,18,16,37,29.00
2018,12,18,16,38,24.20
2018,12,18,16,39,24.20
2018,12,18,16,40,24.20
2018,12,18,16,41,19.30
2018,12,18,16,42,22.50
2018,12,18,16,43,19.30
2018,12,18,16,44,22.50
2018,12,18,16,45,22.50
2018,12,18,16,46,17.70
2018,12,18,16,47,25.70
2018,12,18,16,48,24.20
2018,12,18,16,49,17.70
2018,12,18,16,50,16.10
2018,12,18,16,51,24.20
2018,12,18,16,52,19.30
2018,12,18,16,53,24.20
2018,12,18,16,54,24.20
2018,12,18,16,55,24.20
2018,12,18,16,56,19.30
2018,12,18,16,57,20.90
2018,12,18,16,58,17.70
2018,12,18,16,59,22.50
2018,12,18,17,00,17.70
2018,12,18,17,01,16.10
2018,12,18,17,02,19.30
2018,12,18,17,03,19.30
2018,12,18,17,04,12.90
2018,12,18,17,05,20.90
2018,12,18,17,06,16.10
2018,12,18,17,07,17.70
2018,12,18,17,08,19.30
2018,12,18,17,09,30.60
2018,12,18,17,10,29.00
2018,12,18,17,11,30.60
2018,12,18,17,12,25.70
2018,12,18,17,13,30.60
2018,12,18,17,14,24.20
2018,12,18,17,15,19.30
2018,12,18,17,16,19.30
2018,12,18,17,17,27.40
2018,12,18,17,18,25.70
2018,12,18,17,19,20.90
2018,12,18,17,20,17.70
2018,12,18,17,21,19.30
2018,12,18,17,22,16.10
2018,12,18,17,23,17.70
2018,12,18,17,24,25.70
2018,12,18,17,25,22.50
2018,12,18,17,26,17.70
2018,12,18,17,27,19.30
2018,12,18,17,28,27.40
2018,12,18,17,29,24.20
2018,12,18,17,30,22.50
2018,12,18,17,31,24.20
2018,12,18,17,32,22.50
2018,12,18,17,33,20.90
2018,12,18,17,34,19.30
2018,12,18,17,35,16.10
2018,12,18,17,36,17.70
2018,12,18,17,37,14.50
2018,12,18,17,38,16.10
2018,12,18,17,39,16.10
2018,12,18,17,40,12.90
2018,12,18,17,41,14.50
2018,12,18,17,42,14.50
2018,12,18,17,43,17.70
2018,12,18,17,44,12.90
2018,12,18,17,45,16.10
2018,12,18,17,46,19.30
2018,12,18,17,47,16.10
2018,12,18,17,48,14.50
2018,12,18,17,49,11.30
2018,12,18,17,50,17.70
2018,12,18,17,51,14.50
2018,12,18,17,52,14.50
2018,12,18,17,53,14.50
2018,12,18,17,54,12.90
2018,12,18,17,55,12.90
2018,12,18,17,56,19.30
2018,12,18,17,57,20.90
2018,12,18,17,58,29.00
2018,12,18,17,59,33.80
2018,12,18,18,00,32.20
2018,12,18,18,01,20.90
2018,12,18,18,02,20.90
2018,12,18,18,03,14.50
2018,12,18,18,04,25.70
2018,12,18,18,05,33.80
2018,12,18,18,06,35.40
2018,12,18,18,07,27.40
2018,12,18,18,08,30.60
2018,12,18,18,09,25.70
2018,12,18,18,10,17.70
2018,12,18,18,11,27.40
2018,12,18,18,12,24.20
2018,12,18,18,13,24.20
2018,12,18,18,14,19.30
2018,12,18,18,15,19.30
2018,12,18,18,16,11.30
2018,12,18,18,17,17.70
2018,12,18,18,18,14.50
2018,12,18,18,19,11.30
2018,12,18,18,20,11.30
2018,12,18,18,21,8.10
2018,12,18,18,22,12.90
2018,12,18,18,23,9.60
2018,12,18,18,24,9.60
2018,12,18,18,25,6.40
2018,12,18,18,26,9.60
2018,12,18,18,27,8.10
2018,12,18,18,28,11.30
2018,12,18,18,29,8.10
2018,12,18,18,30,8.10
2018,12,18,18,31,6.40
2018,12,18,18,32,12.90
2018,12,18,18,33,9.60
2018,12,18,18,34,11.30
2018,12,18,18,35,12.90
2018,12,18,18,36,17.70
2018,12,18,18,37,14.50
2018,12,18,18,38,12.90
2018,12,18,18,39,9.60
2018,12,18,18,40,9.60
2018,12,18,18,41,12.90
2018,12,18,18,42,16.10
2018,12,18,18,43,12.90
2018,12,18,18,44,11.30
2018,12,18,18,45,14.50
2018,12,18,18,46,16.10
2018,12,18,18,47,9.60
2018,12,18,18,48,9.60
2018,12,18,18,49,20.90
2018,12,18,18,50,16.10
2018,12,18,18,51,12.90
2018,12,18,18,52,4.80
2018,12,18,18,53,4.80
2018,12,18,18,54,9.60
2018,12,18,18,55,4.80
2018,12,18,18,56,9.60
2018,12,18,18,57,8.10
2018,12,18,18,58,9.60
2018,12,18,18,59,8.10
2018,12,18,19,00,8.10
2018,12,18,19,01,11.30
2018,12,18,19,02,11.30
2018,12,18,19,03,9.60
2018,12,18,19,04,11.30
2018,12,18,19,05,9.60
2018,12,18,19,06,6.40
2018,12,18,19,07,8.10
2018,12,18,19,08,9.60
2018,12,18,19,09,6.40
2018,12,18,19,10,8.10
2018,12,18,19,11,9.60
2018,12,18,19,12,8.10
2018,12,18,19,13,8.10
2018,12,18,19,14,6.40
2018,12,18,19,15,6.40
2018,12,18,19,16,6.40
2018,12,18,19,17,6.40
2018,12,18,19,18,11.30
2018,12,18,19,19,9.60
2018,12,18,19,20,8.10
2018,12,18,19,21,12.90
2018,12,18,19,22,12.90
2018,12,18,19,23,22.50
2018,12,18,19,24,14.50
2018,12,18,19,25,16.10
2018,12,18,19,26,16.10
2018,12,18,19,27,14.50
2018,12,18,19,28,14.50
2018,12,18,19,29,12.90
2018,12,18,19,30,14.50
2018,12,18,19,31,14.50
2018,12,18,19,32,12.90
2018,12,18,19,33,12.90
2018,12,18,19,34,12.90
2018,12,18,19,35,11.30
2018,12,18,19,36,16.10
2018,12,18,19,37,12.90
2018,12,18,19,38,11.30
2018,12,18,19,39,11.30
2018,12,18,19,40,11.30
2018,12,18,19,41,9.60
2018,12,18,19,42,11.30
2018,12,18,19,43,11.30
2018,12,18,19,44,12.90
2018,12,18,19,45,11.30
2018,12,18,19,46,11.30
2018,12,18,19,47,11.30
2018,12,18,19,48,9.60
2018,12,18,19,49,9.60
2018,12,18,19,50,9.60
2018,12,18,19,51,9.60
2018,12,18,19,52,9.60
2018,12,18,19,53,16.10
2018,12,18,19,54,12.90
2018,12,18,19,55,11.30
2018,12,18,19,56,14.50
2018,12,18,19,57,11.30
2018,12,18,19,58,12.90
2018,12,18,19,59,14.50
2018,12,18,20,00,11.30
2018,12,18,20,01,12.90
2018,12,18,20,02,16.10
2018,12,18,20,03,12.90
2018,12,18,20,04,11.30
2018,12,18,20,05,14.50
2018,12,18,20,06,17.70
2018,12,18,20,07,11.30
2018,12,18,20,08,16.10
2018,12,18,20,09,9.60
2018,12,18,20,10,11.30
2018,12,18,20,11,6.40
2018,12,18,20,12,16.10
2018,12,18,20,13,12.90
2018,12,18,20,14,4.80
2018,12,18,20,15,6.40
2018,12,18,20,16,8.10
2018,12,18,20,17,9.60
2018,12,18,20,18,4.80
2018,12,18,20,19,9.60
2018,12,18,20,20,9.60
2018,12,18,20,21,16.10
2018,12,18,20,22,11.30
2018,12,18,20,23,11.30
2018,12,18,20,24,8.10
2018,12,18,20,25,8.10
2018,12,18,20,26,16.10
2018,12,18,20,27,16.10
2018,12,18,20,28,16.10
2018,12,18,20,29,16.10
2018,12,18,20,30,16.10
2018,12,18,20,31,16.10
2018,12,18,20,32,12.90
2018,12,18,20,33,12.90
2018,12,18,20,34,9.60
2018,12,18,20,35,6.40
2018,12,18,20,36,4.80
2018,12,18,20,37,4.80
2018,12,18,20,38,9.60
2018,12,18,20,39,8.10
2018,12,18,20,40,6.40
2018,12,18,20,41,6.40
2018,12,18,20,42,4.80
2018,12,18,20,43,6.40
2018,12,18,20,44,4.80
2018,12,18,20,45,3.20
2018,12,18,20,46,1.60
2018,12,18,20,47,1.60
2018,12,18,20,48,4.80
2018,12,18,20,49,6.40
2018,12,18,20,50,11.30
2018,12,18,20,51,8.10
2018,12,18,20,52,6.40
2018,12,18,20,53,14.50
2018,12,18,20,54,12.90
2018,12,18,20,55,11.30
2018,12,18,20,56,6.40
2018,12,18,20,57,4.80
2018,12,18,20,58,6.40
2018,12,18,20,59,1.60
2018,12,18,21,00,3.20
2018,12,18,21,01,3.20
2018,12,18,21,02,4.80
2018,12,18,21,03,1.60
2018,12,18,21,12,3.20
2018,12,18,21,13,4.80
2018,12,18,21,14,1.60
2018,12,18,21,15,4.80
2018,12,18,21,16,4.80
2018,12,18,21,17,4.80
2018,12,18,21,18,4.80
2018,12,18,21,19,4.80
2018,12,18,21,20,6.40
2018,12,18,21,21,6.40
2018,12,18,21,22,3.20
2018,12,18,21,23,4.80
2018,12,18,21,24,4.80
2018,12,18,21,25,4.80
2018,12,18,21,26,4.80
2018,12,18,21,27,4.80
2018,12,18,21,28,3.20
2018,12,18,21,29,4.80
2018,12,18,21,30,4.80
2018,12,18,21,31,3.20
2018,12,18,21,32,3.20
2018,12,18,21,33,4.80
2018,12,18,21,34,6.40
2018,12,18,21,35,6.40
2018,12,18,21,36,6.40
2018,12,18,21,39,4.80
2018,12,18,21,40,4.80
2018,12,18,21,41,6.40
2018,12,18,21,42,8.10
2018,12,18,21,43,4.80
2018,12,18,21,44,6.40
2018,12,18,21,45,6.40
2018,12,18,21,46,8.10
2018,12,18,21,47,11.30
2018,12,18,21,48,11.30
2018,12,18,21,49,8.10
2018,12,18,21,50,4.80
2018,12,18,21,51,6.40
2018,12,18,21,52,27.40
2018,12,18,21,53,27.40
2018,12,18,21,54,20.90
2018,12,18,21,55,22.50
2018,12,18,21,56,20.90
2018,12,18,21,57,20.90
2018,12,18,21,58,17.70
2018,12,18,21,59,14.50
2018,12,18,22,00,19.30
2018,12,18,22,01,19.30
2018,12,18,22,02,14.50
2018,12,18,22,03,17.70
2018,12,18,22,04,17.70
2018,12,18,22,05,30.60
2018,12,18,22,06,22.50
2018,12,18,22,07,24.20
2018,12,18,22,08,24.20
2018,12,18,22,09,30.60
2018,12,18,22,10,14.50
2018,12,18,22,11,27.40
2018,12,18,22,12,27.40
2018,12,18,22,13,19.30
2018,12,18,22,14,24.20
2018,12,18,22,15,35.40
2018,12,18,22,16,29.00
2018,12,18,22,17,33.80
2018,12,18,22,18,30.60
2018,12,18,22,19,22.50
2018,12,18,22,20,19.30
2018,12,18,22,21,37.00
2018,12,18,22,22,35.40
2018,12,18,22,23,24.20
2018,12,18,22,24,27.40
2018,12,18,22,25,29.00
2018,12,18,22,26,33.80
2018,12,18,22,27,24.20
2018,12,18,22,28,14.50
2018,12,18,22,29,19.30
2018,12,18,22,30,24.20
2018,12,18,22,31,27.40
2018,12,18,22,32,30.60
2018,12,18,22,33,20.90
2018,12,18,22,34,20.90
2018,12,18,22,35,20.90
2018,12,18,22,36,16.10
2018,12,18,22,37,12.90
2018,12,18,22,38,16.10
2018,12,18,22,39,16.10
2018,12,18,22,40,11.30
2018,12,18,22,41,9.60
2018,12,18,22,42,9.60
2018,12,18,22,43,11.30
2018,12,18,22,44,16.10
2018,12,18,22,45,12.90
2018,12,18,22,46,12.90
2018,12,18,22,47,17.70
2018,12,18,22,48,11.30
2018,12,18,22,49,12.90
2018,12,18,22,50,11.30
2018,12,18,22,51,16.10
2018,12,18,22,52,11.30
2018,12,18,22,53,14.50
2018,12,18,22,54,14.50
2018,12,18,22,55,11.30
2018,12,18,22,56,11.30
2018,12,18,22,57,9.60
2018,12,18,22,58,9.60
2018,12,18,22,59,9.60
2018,12,18,23,00,6.40
2018,12,18,23,01,8.10
2018,12,18,23,02,12.90
2018,12,18,23,03,14.50
2018,12,18,23,04,14.50
2018,12,18,23,05,12.90
2018,12,18,23,06,14.50
2018,12,18,23,07,12.90
2018,12,18,23,08,9.60
2018,12,18,23,09,12.90
2018,12,18,23,10,14.50
2018,12,18,23,11,11.30
2018,12,18,23,12,17.70
2018,12,18,23,13,16.10
2018,12,18,23,14,12.90
2018,12,18,23,15,12.90
2018,12,18,23,16,12.90
2018,12,18,23,17,11.30
2018,12,18,23,18,12.90
2018,12,18,23,19,12.90
2018,12,18,23,20,11.30
2018,12,18,23,21,16.10
2018,12,18,23,22,20.90
2018,12,18,23,23,19.30
2018,12,18,23,24,16.10
2018,12,18,23,25,17.70
2018,12,18,23,26,14.50
2018,12,18,23,27,17.70
2018,12,18,23,28,16.10
2018,12,18,23,29,20.90
2018,12,18,23,30,11.30
2018,12,18,23,31,16.10
2018,12,18,23,32,17.70
2018,12,18,23,33,19.30
2018,12,18,23,34,16.10
2018,12,18,23,35,12.90
2018,12,18,23,36,11.30
2018,12,18,23,37,9.60
2018,12,18,23,38,11.30
2018,12,18,23,39,12.90
2018,12,18,23,40,14.50
2018,12,18,23,41,17.70
2018,12,18,23,42,19.30
2018,12,18,23,43,20.90
2018,12,18,23,44,24.20
2018,12,18,23,45,20.90
2018,12,18,23,46,19.30
2018,12,18,23,47,25.70
2018,12,18,23,48,27.40
2018,12,18,23,49,17.70
2018,12,18,23,50,20.90
2018,12,18,23,51,20.90
2018,12,18,23,52,17.70
2018,12,18,23,53,14.50
2018,12,18,23,54,20.90
2018,12,18,23,55,14.50
2018,12,18,23,56,16.10
2018,12,18,23,57,16.10
2018,12,18,23,58,19.30
2018,12,18,23,59,14.50
